Theta_e
311 309 309 308 306 303 300 298 298 295 295 295 294 293 293 293 292 292 291 290 290 290
309 308 307 307 306 305 303 301 298 297 296 295 294 293 292 292 292 291 291 290 290 289
309 309 308 306 304 304 304 303 298 296 296 294 293 293 292 292 291 291 290 290 289 288
309 308 307 306 305 304 302 301 298 297 295 294 293 293 292 291 290 290 290 290 289 288
310 308 305 305 305 303 302 300 299 298 296 294 293 292 291 290 290 290 289 289 289 289
309 308 305 303 303 302 300 298 298 298 296 295 294 293 293 292 291 291 291 290 289 289
309 309 307 304 302 301 300 298 298 297 296 295 294 293 293 292 291 291 290 290 290 289
299 310 307 302 301 301 300 299 298 296 296 295 294 293 293 292 291 290 290 288 289 289
294 303 304 301 301 300 298 297 296 295 295 294 293 296 296 294 291 289 289 287 287 288
289 293 301 301 301 301 298 297 295 295 295 294 294 297 297 296 292 290 289 288 287 286
286 288 291 300 300 301 300 296 295 294 294 294 293 297 298 297 291 290 289 289 288 287
284 285 288 292 299 299 298 296 295 293 293 293 292 296 297 296 290 288 288 288 288 288
283 284 286 289 293 295 295 293 291 291 293 294 292 296 297 296 290 287 286 287 287 290
282 283 286 287 291 292 291 289 289 289 290 291 291 293 297 297 290 288 286 285 285 287
Wind_Speed
13 9 12 17 14 13 13 13 14 14 13 14 13 12 11 9 9 10 7 9 6 4
12 12 9 12 14 13 14 12 13 14 14 13 12 13 12 9 11 9 9 7 8 4
13 12 12 12 12 13 14 15 15 15 14 12 11 12 12 8 9 11 7 6 9 6
12 12 12 12 13 13 12 13 14 14 13 14 13 13 12 11 11 12 10 9 10 9
13 13 12 11 12 13 13 12 13 13 13 12 13 12 14 13 12 14 13 12 10 10
13 13 13 13 13 13 12 12 12 14 14 14 15 15 13 13 12 14 13 13 14 12
12 13 11 12 14 14 13 12 12 13 13 14 14 13 14 13 12 12 11 12 12 12
6 12 13 12 12 12 12 13 13 12 11 12 11 10 13 13 12 12 11 10 11 11
8 3 12 13 13 11 11 10 11 12 13 12 9 17 21 15 11 11 11 11 11 10
9 8 6 10 12 12 12 12 11 10 9 10 10 19 22 22 10 10 11 10 8 8
9 8 7 8 11 12 11 13 13 12 11 9 8 16 18 18 8 8 9 10 11 11
9 8 7 4 7 9 9 10 11 10 11 11 9 18 21 18 9 9 8 8 10 11
9 8 7 5 3 3 5 6 6 8 11 12 10 18 20 18 7 7 6 7 8 16
9 8 7 6 3 3 5 6 6 6 6 8 8 10 17 19 8 7 7 6 6 7
Wind_Direction
162 175 173 170 169 171 171 177 177 184 187 188 175 173 175 178 184 181 177 174 159 166
161 161 164 176 174 171 165 166 176 188 184 184 177 180 173 179 183 184 176 176 176 167
169 168 164 157 163 171 164 164 170 182 181 175 176 175 174 178 177 180 181 178 182 181
167 165 162 168 165 168 158 157 167 179 180 181 181 182 183 185 176 188 184 185 189 188
161 162 163 167 164 157 168 164 168 176 184 186 186 181 189 186 185 188 191 190 184 194
166 168 166 169 164 160 159 167 175 181 184 186 190 188 193 194 188 195 195 191 192 189
177 173 170 169 166 162 166 167 179 192 186 187 189 186 189 190 192 194 197 194 198 188
335 186 161 162 169 164 171 172 180 189 193 183 183 186 186 189 186 185 188 190 196 199
345 248 170 164 167 166 177 172 169 182 178 178 186 192 189 177 181 180 182 193 198 199
357 8 183 174 169 173 179 167 181 191 180 185 189 189 187 185 177 176 186 187 187 196
357 360 348 187 183 185 177 182 174 184 182 182 205 197 193 183 165 176 186 182 186 194
348 343 350 6 193 185 183 177 183 171 171 184 194 194 189 177 168 180 177 185 186 191
331 331 333 337 285 155 164 179 164 169 178 191 187 188 187 176 159 156 171 177 185 196
323 322 311 319 312 183 150 136 145 153 160 163 165 182 182 176 163 177 169 181 182 196